Cloud_Cover
69 5 0 0 30 55 100 100 100 100 100 90 8 10 3 10 6 24 96 95 25 15 83 26 28 52 50 1 1 6 5 36 94 100 77 66 100 100 100 32 84 77 3 4 0 0 1 5 5
62 5 0 5 3 59 26 98 100 78 52 100 100 100 100 60 39 93 99 100 32 13 98 75 100 100 35 66 5 5 4 3 42 100 92 81 95 100 100 96 85 97 100 37 3 2 1 4 5
99 5 5 5 28 87 20 92 100 93 0 54 76 100 100 100 51 91 70 7 4 5 58 100 60 100 100 100 100 100 100 89 5 5 32 16 42 22 57 100 61 18 56 5 2 6 5 2 3
30 12 5 5 22 76 100 100 100 25 57 2 0 22 65 84 83 88 38 0 100 7 6 77 93 3 56 100 100 100 100 100 100 12 77 5 5 5 3 79 28 4 3 0 0 0 0 0 0
0 2 5 28 100 12 99 100 45 74 81 100 0 3 23 33 99 95 84 28 42 70 94 7 3 0 4 5 62 98 57 29 5 84 94 71 24 16 7 6 71 26 0 0 1 5 0 0 0
0 0 5 74 100 100 100 100 100 99 100 100 0 0 4 6 28 100 82 77 32 68 99 100 5 5 4 0 2 3 4 20 29 96 58 22 8 86 31 67 56 6 5 3 0 0 1 2 0
0 0 0 86 44 100 100 100 100 53 100 96 52 0 0 34 0 43 100 99 100 95 12 96 100 77 49 69 72 5 5 5 51 5 55 35 94 94 100 53 35 94 11 31 14 2 4 10 5
0 3 0 1 100 99 100 100 100 81 100 100 100 0 0 0 0 0 14 37 98 100 100 100 99 97 100 100 100 96 94 92 100 8 97 100 100 100 100 83 77 96 100 100 92 56 100 100 100
1 4 5 4 30 100 69 100 100 59 5 90 49 0 0 0 0 4 28 28 0 2 14 70 10 97 100 100 80 36 3 5 5 99 88 3 25 43 100 100 100 40 43 12 3 20 56 99 46
23 1 1 2 3 90 2 76 54 50 42 0 5 4 0 0 41 46 5 0 0 0 0 4 0 11 68 88 82 75 91 11 9 1 21 90 92 21 0 59 83 35 1 0 0 0 34 49 3
0 0 5 4 2 4 32 21 7 100 91 1 0 0 4 0 0 0 0 0 35 28 74 5 0 0 22 98 41 100 98 7 68 34 0 0 2 0 0 4 50 51 5 67 8 4 7 95 0
0 0 0 0 3 0 2 3 96 100 100 100 36 0 0 0 0 0 30 38 100 100 99 37 4 0 0 1 0 0 1 28 1 49 0 0 0 0 0 0 0 31 80 83 4 0 43 18 38
0 0 0 0 0 0 0 4 5 14 76 24 18 0 0 0 27 30 69 92 100 86 52 21 45 68 34 0 2 0 0 4 13 8 0 0 0 0 0 0 0 0 0 0 0 0 0 0 0
0 0 0 0 0 0 0 3 0 0 4 3 0 0 0 8 25 21 99 100 45 41 100 99 91 46 2 0 0 0 0 0 0 0 0 0 0 0 0 0 0 0 0 0 0 0 0 0 0
0 0 0 0 0 0 0 0 0 0 0 0 0 0 0 1 24 15 12 100 20 84 100 69 0 0 0 0 0 0 0 0 0 0 0 0 0 0 0 0 0 0 0 0 0 0 0 0 0
0 0 0 0 0 0 0 3 0 0 0 0 0 0 0 0 0 0 1 26 37 63 23 0 0 0 0 0 0 0 0 0 0 0 0 0 0 0 0 0 0 0 0 0 0 0 0 0 0
0 0 0 64 0 0 0 46 7 5 5 4 0 0 0 0 0 0 0 0 0 0 0 0 0 0 0 0 0 0 0 0 0 0 0 0 0 0 0 0 0 0 0 0 0 0 0 0 0
0 0 3 82 1 0 0 5 4 0 0 3 5 5 0 0 0 0 0 0 0 0 0 0 0 0 0 0 0 0 0 0 0 0 0 0 0 0 0 3 3 0 4 1 0 0 0 0 12
0 58 2 63 100 71 100 16 0 3 5 0 3 34 23 0 0 0 0 0 0 0 0 0 0 0 0 0 0 0 0 0 0 0 0 0 0 0 6 1 0 10 6 75 98 1 0 14 16
0 0 79 100 33 50 11 83 70 87 71 1 0 64 32 1 0 0 0 0 0 1 0 0 0 0 0 0 0 0 0 0 0 0 25 92 4 89 93 100 100 30 60 100 51 0 0 44 9
0 0 10 87 10 0 0 10 94 92 53 0 1 71 68 0 0 0 0 0 0 0 0 0 0 0 0 0 0 0 0 0 0 20 5 0 0 85 100 100 78 44 53 73 77 77 76 98 96
0 0 0 16 9 1 0 0 8 83 81 40 5 58 100 64 0 0 0 0 0 0 0 0 0 0 0 0 0 0 0 0 1 1 17 15 10 70 100 90 100 100 47 100 100 49 38 78 73
0 0 0 90 100 2 1 3 0 34 10 100 100 100 99 97 40 24 29 2 0 0 0 0 0 0 0 0 0 0 0 0 20 100 100 47 83 95 100 78 100 100 100 76 100 6 0 21 48
0 4 8 0 9 30 0 32 84 75 100 100 100 100 100 100 72 97 24 10 0 0 0 0 0 0 0 0 0 0 96 100 100 87 98 100 100 98 100 100 100 100 100 84 11 13 22 10 2
0 5 5 25 4 27 89 31 83 96 98 24 44 100 100 53 0 13 20 0 0 0 0 0 0 0 0 0 0 4 100 100 99 8 30 100 100 81 100 88 41 90 10 4 3 12 22 53 6
5 5 12 70 72 69 99 96 93 1 4 0 0 62 46 100 100 0 1 0 0 0 0 0 0 0 0 0 6 23 99 55 0 3 12 31 2 1 10 93 100 100 1 13 11 2 5 5 34
8 5 6 12 99 62 99 99 100 82 0 0 2 14 0 99 28 1 1 1 50 0 0 0 0 0 6 0 2 12 28 0 0 0 65 83 94 100 100 100 100 100 1 1 62 5 1 1 3
12 86 22 13 1 4 84 100 32 88 24 0 59 0 40 89 0 23 45 37 74 0 0 0 0 0 9 0 0 9 0 1 7 0 12 5 0 4 17 29 86 94 99 16 4 96 64 100 100
2 61 18 75 5 1 40 36 99 95 95 72 4 5 6 0 0 41 87 31 1 0 0 0 0 0 0 0 0 1 0 11 1 0 0 3 2 5 5 10 5 78 99 100 83 83 100 100 100
5 5 5 4 9 1 85 30 73 67 30 2 5 5 4 2 0 4 1 3 0 8 1 0 0 0 0 0 0 0 0 3 1 5 5 5 5 20 5 5 25 86 30 3 6 8 30 78 100